Weather reports worldwide

Advertisment
Tain Range, United Kingdom (3062): temperature & dewpoint: 17.11.2020 21:00:00 - 23.11.2020 21:00:00 (GMT)Tain Range, United Kingdom (3062): temperature -20cm & temperature -100cm: 17.11.2020 21:00:00 - 23.11.2020 21:00:00 (GMT)Tain Range, United Kingdom (3062): wind speed & gusts: 17.11.2020 21:00:00 - 23.11.2020 21:00:00 (GMT)Tain Range, United Kingdom (3062): wind direction: 17.11.2020 21:00:00 - 23.11.2020 21:00:00 (GMT)Tain Range, United Kingdom (3062): reduced air pressure: 17.11.2020 21:00:00 - 23.11.2020 21:00:00 (GMT)Tain Range, United Kingdom (3062): visibility: 17.11.2020 21:00:00 - 23.11.2020 21:00:00 (GMT)Tain Range, United Kingdom (3062): precipitation: 17.11.2020 21:00:00 - 23.11.2020 21:00:00 (GMT)
Date & Time tt [°C] td [°C] tt -20cm [°C] tt -100cm [°C] ff [km/h] ff [kn] fx [km/h] fx [kn] dd ppp [hPa] vv [km] rr [mm]
23.11.2020 21:00:00 7,1 6,0 - - 16 9 - - SSW 1004,7 35 0,6
23.11.2020 20:00:00 7,5 6,3 - - 15 8 - - SW 1005,1 18 0,6
23.11.2020 19:00:00 8,0 6,6 - - 15 8 - - SW 1005,2 24 0,6
23.11.2020 18:00:00 8,4 7,7 - - 15 8 - - SW 1005,1 14 1,0
23.11.2020 17:00:00 8,7 6,8 - - 26 14 - - SW 1004,9 23 0,0
23.11.2020 16:00:00 8,1 5,9 - - 28 15 - - SSW 1004,8 40 0,0
23.11.2020 15:00:00 7,8 4,9 - - 22 12 48 26 SSW 1005,5 45 0,0
23.11.2020 14:00:00 8,1 4,4 - - 31 17 57 31 SSW 1006,3 50 0,0
23.11.2020 13:00:00 8,7 4,1 - - 41 22 55 30 SW 1007,6 45 0,0
23.11.2020 12:00:00 8,1 3,3 - - 28 15 48 26 SSW 1009,1 40 0,0
23.11.2020 11:00:00 7,9 3,2 - - 28 15 54 29 SSW 1010,3 50 0,0
23.11.2020 10:00:00 7,8 3,3 - - 35 19 52 28 SSW 1011,1 50 0,0
23.11.2020 09:00:00 7,4 4,9 7,2 8,2 15 8 - - S 1012,0 50 0,0
23.11.2020 08:00:00 7,1 5,6 - - 8 4 - - SSW 1012,8 50 0,0
23.11.2020 07:00:00 6,4 4,8 - - 4 2 - - WSW 1013,2 50 0,0
23.11.2020 06:00:00 6,7 4,3 - - 5 3 - - SSW 1013,7 45 0,0
23.11.2020 05:00:00 5,6 3,8 - - 15 8 - - SSW 1014,4 50 0,0
23.11.2020 04:00:00 4,7 3,2 - - 16 9 - - SSW 1015,3 50 0,0
23.11.2020 03:00:00 5,3 3,3 - - 22 12 - - SSW 1015,5 50 0,0
23.11.2020 02:00:00 4,3 2,8 - - 18 10 - - S 1016,3 50 0,0
23.11.2020 01:00:00 3,3 2,1 - - 15 8 - - S 1016,4 50 0,0
23.11.2020 00:00:00 2,4 1,5 - - 11 6 - - S 1016,5 50 0,0
22.11.2020 23:00:00 3,5 2,3 - - 16 9 - - SSW 1017,0 50 0,0
22.11.2020 22:00:00 3,3 1,8 - - 5 3 - - WSW 1017,0 50 0,0
22.11.2020 21:00:00 3,3 1,5 - - 11 6 - - SSW 1016,9 50 0,0
22.11.2020 20:00:00 3,4 1,8 - - 16 9 - - SSW 1016,8 50 0,0
22.11.2020 19:00:00 3,6 2,1 - - 18 10 - - SW 1016,6 50 0,0
22.11.2020 18:00:00 4,0 2,2 - - 24 13 - - SW 1016,4 50 0,0
22.11.2020 17:00:00 4,7 2,7 - - 21 11 - - WSW 1016,3 35 0,0
22.11.2020 16:00:00 5,4 1,9 - - 15 8 - - W 1016,0 40 0,0
22.11.2020 15:00:00 6,2 3,0 - - 15 8 - - SSW 1015,9 50 0,0
22.11.2020 14:00:00 6,9 2,6 - - 28 15 - - WSW 1015,9 28 0,0
22.11.2020 13:00:00 7,2 2,3 - - 24 13 - - W 1015,8 45 0,0
22.11.2020 12:00:00 7,1 4,6 - - 13 7 - - NW 1016,0 30 0,0
22.11.2020 11:00:00 6,8 3,4 - - 18 10 - - NW 1015,8 28 0,0
22.11.2020 10:00:00 6,5 2,9 - - 11 6 - - WSW 1015,1 40 0,0
22.11.2020 09:00:00 6,0 2,2 7,5 8,4 22 12 48 26 W 1014,7 50 0,0
22.11.2020 08:00:00 5,5 3,2 - - 16 9 - - SW 1014,1 40 0,2
22.11.2020 07:00:00 6,3 2,8 - - 24 13 - - WSW 1013,1 45 0,0
22.11.2020 06:00:00 6,1 2,7 - - 31 17 50 27 W 1012,4 50 0,2
22.11.2020 05:00:00 5,6 2,9 - - 26 14 78 42 WSW 1011,7 35 0,6
22.11.2020 04:00:00 6,7 3,1 - - 42 23 72 39 W 1011,1 5 0,2
22.11.2020 03:00:00 6,7 1,5 - - 31 17 46 25 W 1010,1 19 0,2
22.11.2020 02:00:00 5,8 2,5 - - 37 20 72 39 W 1009,7 19 0,2
22.11.2020 01:00:00 5,5 1,4 - - 22 12 - - WSW 1009,8 30 0,0
22.11.2020 00:00:00 5,5 1,8 - - 18 10 - - SW 1009,7 30 0,0
21.11.2020 23:00:00 4,3 1,9 - - 18 10 - - SSW 1009,1 35 0,2
21.11.2020 22:00:00 5,5 2,4 - - 34 18 46 25 W 1009,3 40 0,0
21.11.2020 21:00:00 3,8 1,3 - - 16 9 54 29 WSW 1009,5 50 0,0
21.11.2020 20:00:00 4,9 1,5 - - 18 10 - - WSW 1009,6 30 0,0
21.11.2020 19:00:00 5,4 1,6 - - 31 17 59 32 W 1009,7 50 0,2
21.11.2020 18:00:00 5,2 2,3 - - 18 10 - - WSW 1009,5 35 0,2
21.11.2020 17:00:00 5,8 2,5 - - 29 16 54 29 WSW 1009,0 45 0,0
21.11.2020 16:00:00 6,5 2,5 - - 26 14 - - WSW 1009,2 35 0,0
21.11.2020 15:00:00 6,6 2,6 - - 24 13 - - WSW 1008,8 40 0,0
21.11.2020 14:00:00 6,8 2,4 - - 31 17 48 26 W 1008,9 50 0,0
21.11.2020 13:00:00 8,3 2,8 - - 22 12 - - WSW 1009,1 40 0,0
21.11.2020 12:00:00 7,6 3,2 - - 29 16 - - WSW 1009,0 45 0,0
21.11.2020 11:00:00 8,5 4,2 - - 22 12 - - W 1008,8 35 0,0
21.11.2020 10:00:00 7,1 4,3 - - 26 14 54 29 W 1008,0 12 0,8
21.11.2020 09:00:00 7,6 3,8 7,7 8,5 31 17 67 36 W 1007,4 11 0,0
21.11.2020 08:00:00 7,0 1,9 - - 16 9 - - WSW 1007,0 35 0,0
21.11.2020 07:00:00 6,7 1,7 - - 22 12 - - SW 1007,2 40 0,0
21.11.2020 06:00:00 6,7 2,2 - - 21 11 55 30 WSW 1007,2 35 0,0
21.11.2020 05:00:00 8,1 3,0 - - 28 15 52 28 WSW 1006,8 40 0,2
21.11.2020 04:00:00 7,3 4,5 - - 21 11 48 26 WSW 1006,9 35 0,0
21.11.2020 03:00:00 7,7 4,2 - - 35 19 68 37 WSW 1006,6 40 0,0
21.11.2020 02:00:00 8,3 4,6 - - 37 20 74 40 W 1006,9 30 0,0
21.11.2020 01:00:00 10,3 4,0 - - 50 27 68 37 W 1006,6 23 0,0
21.11.2020 00:00:00 11,4 3,2 - - 34 18 70 38 W 1006,0 20 0,0
20.11.2020 23:00:00 12,1 6,3 - - 42 23 65 35 W 1006,8 19 0,0
20.11.2020 22:00:00 12,6 6,1 - - 37 20 74 40 WSW 1006,7 21 0,0
20.11.2020 21:00:00 12,5 6,5 - - 46 25 81 44 WSW 1006,2 40 0,0
20.11.2020 20:00:00 13,1 9,3 - - 26 14 46 25 W 1005,8 50 0,0
20.11.2020 19:00:00 13,1 10,0 - - 21 11 50 27 SW 1006,3 50 0,0
20.11.2020 18:00:00 12,1 9,7 - - 35 19 50 27 SSW 1006,6 50 0,0
20.11.2020 17:00:00 11,6 8,9 - - 35 19 55 30 SW 1006,6 50 0,0
20.11.2020 16:00:00 11,1 8,3 - - 16 9 - - SSW 1008,4 35 0,0
20.11.2020 15:00:00 11,1 8,2 - - 24 13 46 25 SSW 1009,9 50 0,0
20.11.2020 14:00:00 10,6 7,7 - - 21 11 - - SSW 1010,4 50 0,0
20.11.2020 13:00:00 8,3 6,2 - - 8 4 - - SSE 1012,6 35 0,2
20.11.2020 12:00:00 7,5 5,5 - - 16 9 - - SSW 1014,3 17 0,0
20.11.2020 11:00:00 6,3 4,5 - - 9 5 - - SSE 1016,5 50 0,0
20.11.2020 10:00:00 3,5 2,6 - - 11 6 - - S 1017,7 40 0,0
20.11.2020 09:00:00 1,9 1,3 7,9 8,7 5 3 - - NNW 1019,6 50 0,0
20.11.2020 08:00:00 2,3 1,3 - - 5 3 - - SSW 1020,2 50 0,0
20.11.2020 07:00:00 1,4 1,4 - - 5 3 - - S 1021,5 35 0,0
20.11.2020 06:00:00 -0,1 -0,3 - - 0 0 - - N 1022,5 45 0,0
20.11.2020 05:00:00 -1,5 -1,8 - - 4 2 - - WSW 1023,3 45 0,0
20.11.2020 04:00:00 -1,6 -2,0 - - 5 3 - - SSW 1024,2 45 0,0
20.11.2020 03:00:00 -1,2 -1,8 - - 4 2 - - SE 1025,5 40 0,0
20.11.2020 02:00:00 -1,2 -1,8 - - 5 3 - - SE 1026,2 50 0,0
20.11.2020 01:00:00 0,6 -0,6 - - 4 2 - - SSW 1026,6 40 0,0
20.11.2020 00:00:00 0,7 -0,3 - - 4 2 70 38 SSW 1027,6 30 0,0
19.11.2020 23:00:00 0,1 -1,0 - - 8 4 - - S 1028,4 45 0,0
19.11.2020 22:00:00 -0,6 -1,9 - - 11 6 - - WSW 1028,6 45 0,0
19.11.2020 21:00:00 1,4 -0,3 - - 13 7 - - SSW 1028,4 35 0,0
19.11.2020 20:00:00 2,1 0,2 - - 11 6 - - WSW 1028,8 50 0,0
19.11.2020 19:00:00 2,1 0,3 - - 9 5 - - WSW 1028,7 50 0,0
19.11.2020 18:00:00 2,3 0,3 - - 8 4 - - W 1028,5 50 0,0
19.11.2020 17:00:00 3,6 0,6 - - 18 10 - - W 1027,9 50 0,0
19.11.2020 16:00:00 2,3 0,0 - - 18 10 - - WSW 1027,3 50 0,0
19.11.2020 15:00:00 3,6 0,8 - - 21 11 - - NW 1026,7 50 0,0
19.11.2020 14:00:00 3,9 1,3 - - 26 14 - - NW 1027,1 50 0,0
19.11.2020 13:00:00 4,0 1,8 - - 31 17 - - WNW 1027,3 35 0,2
19.11.2020 12:00:00 4,6 0,1 - - 21 11 - - WNW 1025,8 40 0,0
19.11.2020 11:00:00 4,2 0,1 - - 21 11 - - W 1025,3 50 0,0
19.11.2020 10:00:00 3,2 0,3 - - 21 11 - - WNW 1024,5 45 0,0
19.11.2020 09:00:00 2,7 0,4 8,7 8,7 16 9 - - W 1022,9 50 0,0
19.11.2020 08:00:00 2,0 0,0 - - 18 10 - - W 1022,3 50 0,0
19.11.2020 07:00:00 2,0 0,3 - - 21 11 - - WNW 1021,4 35 0,0
19.11.2020 06:00:00 2,7 0,4 - - 24 13 - - NW 1020,1 35 0,0
19.11.2020 05:00:00 2,6 0,0 - - 22 12 - - NNW 1018,7 45 0,0
19.11.2020 04:00:00 2,5 1,1 - - 24 13 59 32 NNW 1016,6 35 0,0
19.11.2020 03:00:00 3,1 0,8 - - 26 14 48 26 NNW 1014,8 35 0,0
19.11.2020 02:00:00 4,0 0,5 - - 26 14 48 26 NW 1012,8 35 0,0
19.11.2020 01:00:00 4,4 0,4 - - 37 20 52 28 NNW 1010,2 26 0,0
19.11.2020 00:00:00 4,6 2,5 - - 34 18 55 30 NNW 1007,9 19 0,0
18.11.2020 23:00:00 5,5 3,4 - - 37 20 61 33 N 1004,9 25 0,0
18.11.2020 22:00:00 5,8 3,9 - - 35 19 52 28 N 1001,6 50 0,2
18.11.2020 21:00:00 6,0 4,3 - - 34 18 46 25 NNW 998,7 20 0,4
18.11.2020 20:00:00 6,6 5,4 - - 29 16 - - NW 996,3 8 0,4
18.11.2020 19:00:00 6,9 4,8 - - 18 10 - - W 994,3 50 0,0
18.11.2020 18:00:00 6,7 4,5 - - 22 12 50 27 WSW 993,7 50 0,2
18.11.2020 17:00:00 6,9 4,6 - - 37 20 50 27 W 993,9 11 0,4
18.11.2020 16:00:00 9,3 6,3 - - 22 12 - - SW 993,2 40 0,0
18.11.2020 15:00:00 10,4 7,4 - - 18 10 - - WSW 993,1 40 0,0
18.11.2020 14:00:00 11,5 8,3 - - 22 12 - - WSW 993,0 50 0,0
18.11.2020 13:00:00 10,2 9,2 - - 15 8 - - WNW 993,6 40 0,0
18.11.2020 12:00:00 10,1 9,1 - - 16 9 - - WNW 994,2 27 0,6
18.11.2020 11:00:00 10,6 9,9 - - 8 4 - - NW 994,1 35 0,4
18.11.2020 10:00:00 12,3 11,2 - - 11 6 - - W 994,5 50 0,8
18.11.2020 09:00:00 13,2 11,6 8,9 8,7 22 12 - - SW 994,3 19 0,2
18.11.2020 08:00:00 12,8 11,2 - - 13 7 - - SSW 994,1 50 0,0
18.11.2020 07:00:00 13,5 10,8 - - 16 9 - - S 994,7 30 0,0
18.11.2020 06:00:00 13,4 10,8 - - 18 10 - - SSW 995,2 50 0,0
18.11.2020 05:00:00 12,8 10,6 - - 16 9 - - SW 995,9 50 0,0
18.11.2020 04:00:00 13,1 10,8 - - 22 12 - - SW 996,9 50 0,0
18.11.2020 03:00:00 13,3 11,3 - - 26 14 - - SW 997,7 50 0,0
18.11.2020 02:00:00 10,3 10,3 - - 5 3 - - E 998,5 30 0,0
18.11.2020 01:00:00 10,9 10,7 - - 4 2 - - ENE 999,7 50 0,2
18.11.2020 00:00:00 11,2 11,1 - - 9 5 - - ESE 1000,7 4,3 0,6
17.11.2020 23:00:00 11,0 10,9 - - 13 7 - - ESE 1001,7 3,4 1,2
17.11.2020 22:00:00 10,8 10,6 - - 5 3 - - ESE 1002,9 3,0 1,4
17.11.2020 21:00:00 11,5 10,2 - - 13 7 - - S 1003,5 4,5 0,0

tt = temperature
td = dewpoint
tt -20cm = temperature -20cm
tt -100cm = temperature -100cm
ff = wind speed
fx = gusts
dd = wind direction
ppp = reduced air pressure
vv = visibility
rr = precipitation

Next stations